EW5625 Weather Reports


time (UTC)temp
C
wind
direction
speed
KPH
gust
KPH
rain 1hr
cm
rain 24hr
cm
rain mn
cm
humidity
%
barometer
mb
20260507000006 18 265 0.0 0.0 0.00 0.41 0.41 91 1009.3
20260506234505 18 254 0.0 0.0 0.00 0.41 0.41 90 1009.0
20260506233007 18 244 0.0 0.0 0.00 0.41 0.41 90 1008.9
20260506231504 18 264 0.0 0.0 0.00 0.41 0.41 91 1009.0
20260506230009 18 263 0.0 0.0 0.00 0.41 0.41 90 1008.9
20260506224503 18 244 0.0 0.0 0.00 0.41 0.41 90 1009.0
20260506223003 18 264 0.0 0.0 0.00 0.41 0.41 88 1009.0
20260506221501 19 193 0.0 0.0 0.00 0.41 0.41 86 1008.9
20260506220001 20 269 0.0 0.0 0.00 0.41 0.41 85 1008.8
20260506214505 20 237 0.0 0.0 0.00 0.41 0.41 84 1008.5
20260506213124 20 271 0.0 0.0 0.00 0.41 0.41 85 1008.3
20260506211559 20 213 0.0 0.0 0.00 0.41 0.41 85 1008.4
20260506210059 19 255 0.0 0.0 0.00 0.41 0.41 87 1008.3
20260506204558 18 293 0.0 0.0 0.00 0.41 0.41 87 1008.4
20260506203058 18 250 0.0 0.0 0.00 0.41 0.41 87 1008.3
20260506201557 18 269 0.0 0.0 0.00 0.41 0.41 88 1008.3
20260506200056 18 255 0.0 0.0 0.00 0.41 0.41 89 1008.1
20260506194557 18 278 0.0 0.0 0.00 0.41 0.41 89 1008.3
20260506193053 18 283 0.0 0.0 0.00 0.41 0.41 88 1008.6
20260506191552 18 263 0.0 0.0 0.00 0.41 0.41 89 1008.6
20260506190052 17 276 0.0 0.0 0.00 0.41 0.41 92 1008.7
20260506184552 16 243 0.0 0.0 0.00 0.41 0.41 93 1008.8
20260506183055 16 264 0.0 0.0 0.00 0.41 0.41 94 1009.0
20260506181610 16 205 0.0 0.0 0.00 0.41 0.41 94 1009.2
20260506180044 16 260 0.0 0.0 0.00 0.41 0.41 94 1009.5
20260506174543 16 200 0.0 0.0 0.00 0.41 0.41 94 1009.4
20260506173055 16 247 0.0 0.0 0.00 0.41 0.41 94 1009.2
20260506171541 16 214 0.0 0.0 0.00 0.41 0.41 94 1009.4
20260506170042 16 311 0.0 0.0 0.00 0.41 0.41 93 1009.3
20260506164543 15 227 0.0 0.0 0.03 0.41 0.41 93 1009.5
20260506163042 15 195 0.0 0.0 0.08 0.41 0.41 94 1009.6
20260506161539 15 188 0.0 0.0 0.13 0.41 0.41 94 1009.7
20260506160044 16 188 0.0 0.0 0.18 0.41 0.41 95 1009.3
20260506154538 15 324 0.0 0.0 0.20 0.38 0.38 94 1009.9
20260506153045 15 237 0.0 0.0 0.18 0.33 0.33 94 1010.4
20260506151539 15 238 0.0 0.0 0.13 0.25 0.25 94 1010.6
20260506150033 15 164 0.0 0.0 0.15 0.23 0.23 93 1010.4
20260506144530 15 178 0.0 0.0 0.15 0.18 0.18 93 1010.3
20260506143128 16 207 0.0 0.0 0.15 0.15 0.15 93 1010.3
20260506141526 16 269 0.0 0.0 0.13 0.13 0.13 92 1010.5
20260506140125 16 203 0.0 0.0 0.08 0.08 0.08 91 1010.3
20260506134521 16 169 0.0 0.0 0.03 0.03 0.03 89 1010.5
20260506133021 16 197 0.0 0.0 0.00 0.00 0.00 87 1010.3
20260506131526 17 215 0.0 0.0 0.00 0.00 0.00 86 1010.3
20260506130019 17 248 0.0 0.0 0.00 0.00 0.00 85 1010.4
20260506124515 17 270 0.0 0.0 0.00 0.00 0.00 85 1010.6
20260506123016 17 207 0.0 0.0 0.00 0.00 0.00 84 1010.7
20260506121515 17 242 0.0 0.0 0.00 0.00 0.00 83 1010.6
20260506120019 17 249 0.0 0.0 0.00 0.00 0.00 83 1010.4
20260506114520 17 250 0.0 0.0 0.00 0.00 0.00 83 1010.1
20260506113024 17 255 0.0 0.0 0.00 0.00 0.00 83 1010.0
20260506111513 17 224 0.0 0.0 0.00 0.00 0.00 83 1009.8
20260506110013 17 278 0.0 0.0 0.00 0.00 0.00 84 1009.9
20260506104510 17 206 0.0 0.0 0.00 0.00 0.00 84 1009.8
20260506103012 17 234 0.0 0.0 0.00 0.00 0.00 84 1009.7
20260506101508 -17 0.0 0.0 0.00 0.00 0.00 1009.8
20260506100100 -17 0.0 0.0 0.00 0.00 0.00 1009.7
20260506094556 -17 0.0 0.0 0.00 0.00 0.00 1009.6
20260506093052 -17 0.0 0.0 0.00 0.00 0.00 1009.6
20260506091554 -17 216 0.0 0.0 0.00 0.00 0.00 80 1009.8
20260506090047 18 191 0.0 0.0 0.00 0.00 0.00 80 1009.9
20260506084546 18 233 0.0 0.0 0.00 0.00 0.00 79 1009.8
20260506083040 18 266 0.0 0.0 0.00 0.00 0.00 79 1009.7
20260506081538 18 160 0.0 0.0 0.00 0.00 0.00 78 1009.8
20260506073034 18 243 0.0 0.0 0.00 0.00 0.00 76 1010.0
20260506071532 18 210 0.0 0.0 0.00 0.00 0.00 75 1010.1
20260506061525 19 11 0.0 0.0 0.00 0.00 0.00 71 1010.7
20260506044515 20 198 0.0 0.0 0.00 0.00 0.00 67 1011.2
20260506043015 19 235 0.0 0.0 0.00 0.00 0.00 67 1011.2
20260506041512 19 240 0.0 0.0 0.00 0.00 0.00 67 1011.2
20260506040010 19 241 0.0 0.0 0.00 0.00 0.00 67 1011.3
20260506034518 19 174 0.0 0.0 0.00 0.00 0.00 67 1011.2
20260506033007 19 245 0.0 0.0 0.00 0.00 0.00 67 1011.2
20260506031506 19 214 0.0 0.0 0.00 0.00 0.00 67 1011.1
20260506030022 20 129 0.0 0.0 0.00 0.00 0.00 66 1011.2
20260506024510 20 284 0.0 0.0 0.00 0.00 0.00 66 1011.2
20260506023011 20 193 0.0 0.0 0.00 0.00 0.00 65 1011.2
20260506021504 20 250 0.0 0.0 0.00 0.00 0.00 64 1011.2
20260506020003 20 209 0.0 0.0 0.00 0.00 0.00 64 1011.3
20260506014502 20 179 0.0 0.0 0.00 0.00 0.00 63 1011.1
20260506013001 21 217 0.0 0.0 0.00 0.00 0.00 61 1010.9
20260506011610 21 140 0.0 0.0 0.00 0.00 0.00 60 1010.7
20260506010059 21 153 0.0 0.0 0.00 0.00 0.00 58 1010.4
20260506004558 21 262 0.0 0.0 0.00 0.00 0.00 56 1010.4
20260506003058 22 154 0.0 0.0 0.00 0.00 0.00 54 1010.3
20260506001557 22 209 0.0 0.0 0.00 0.00 0.00 53 1010.1